This demonstration page uses our WeatherBlox Daily Observations layout. Learn more.

Left ArrowRight Arrow

Hourly Observations for August 4, 2018

Temp ( °F °C ) Dew Point ( °F °C ) Humidity (%) Winds ( mph kmh ) Pressure ( in mb ) Visibility ( mi km ) Precip ( " mm )
12:17 am 00:17 Clear 70 21 70 21 100 100 S 3 6 30.09 1019 10 16.0934 N/A
12:36 am 00:36 Partly Cloudy 70 21 70 21 100 100 S 3 6 30.12 1020 10 16.0934 N/A
12:57 am 00:57 Partly Cloudy 70 21 70 21 100 100 Calm 30.12 1020 10 16.0934 N/A
1:16 am 01:16 Partly Cloudy 70 21 70 21 100 100 Calm 30.09 1019 10 16.0934 N/A
1:37 am 01:37 Clear 70 21 70 21 100 100 Calm 30.09 1019 10 16.0934 N/A
1:56 am 01:56 Clear 68 20 68 20 100 100 Calm 30.09 1019 10 16.0934 N/A
2:17 am 02:17 Clear 68 20 68 20 100 100 Calm 30.09 1019 10 16.0934 N/A
2:36 am 02:36 Clear 68 20 68 20 100 100 Calm 30.09 1019 7 11.26538 N/A
2:56 am 02:56 Clear 68 20 68 20 100 100 S 3 6 30.09 1019 7 11.26538 N/A
3:17 am 03:17 Clear 68 20 68 20 100 100 S 5 7 30.09 1019 7 11.26538 N/A
3:36 am 03:36 Clear 68 20 68 20 100 100 S 5 7 30.09 1019 7 11.26538 N/A
3:57 am 03:57 Clear 68 20 68 20 100 100 Calm 30.09 1019 7 11.26538 N/A
4:16 am 04:16 Clear 68 20 68 20 100 100 S 3 6 30.09 1019 10 16.0934 N/A
4:37 am 04:37 Clear 68 20 68 20 100 100 S 3 6 30.09 1019 7 11.26538 N/A
4:56 am 04:56 Clear 68 20 68 20 100 100 Calm 30.09 1019 7 11.26538 N/A
5:16 am 05:16 Clear 68 20 68 20 100 100 Calm 30.09 1019 7 11.26538 N/A
5:37 am 05:37 Clear 66 19 66 19 100 100 Calm 30.09 1019 5 8.0467 N/A
5:56 am 05:56 Clear 66 19 66 19 100 100 Calm 30.12 1020 5 8.0467 N/A
6:17 am 06:17 Clear 66 19 66 19 100 100 Calm 30.12 1020 4 6.43736 N/A
6:36 am 06:36 Clear 66 19 66 19 100 100 S 3 6 30.12 1020 4 6.43736 N/A
6:57 am 06:57 Sunny 66 19 66 19 100 100 Calm 30.12 1020 4 6.43736 N/A
7:16 am 07:16 Partly Cloudy 66 19 66 19 100 100 Calm 30.12 1020 4 6.43736 N/A
7:36 am 07:36 Partly Cloudy 66 19 66 19 100 100 S 3 6 30.15 1021 3 4.82802 N/A
7:57 am 07:57 Sunny 68 20 68 20 100 100 Calm 30.15 1021 4 6.43736 N/A
8:16 am 08:16 Sunny 70 21 70 21 100 100 S 3 6 30.15 1021 5 8.0467 N/A
8:37 am 08:37 Sunny 72 22 72 22 100 100 S 3 6 30.15 1021 7 11.26538 N/A
8:56 am 08:56 Sunny 73 23 73 23 100 100 S 3 6 30.12 1020 10 16.0934 N/A
9:17 am 09:17 Sunny 73 23 73 23 100 100 S 3 6 30.12 1020 10 16.0934 N/A
9:36 am 09:36 Sunny 77 25 75 24 94 94 SSW 3 6 30.12 1020 10 16.0934 N/A
9:56 am 09:56 Sunny 79 26 75 24 89 89 Calm 30.12 1020 10 16.0934 N/A
10:17 am 10:17 Sunny 81 27 75 24 84 84 SW 3 6 30.12 1020 10 16.0934 N/A
10:36 am 10:36 Sunny 81 27 75 24 84 84 Calm 30.12 1020 10 16.0934 N/A
10:57 am 10:57 Sunny 82 28 75 24 79 79 Calm 30.12 1020 10 16.0934 N/A
11:16 am 11:16 Partly Cloudy 82 28 75 24 79 79 SSW 3 6 30.12 1020 10 16.0934 N/A
11:37 am 11:37 Sunny 84 29 75 24 74 74 WSW 3 6 30.12 1020 10 16.0934 N/A
11:56 am 11:56 Sunny 84 29 75 24 74 74 Calm 30.12 1020 10 16.0934 N/A
12:17 pm 12:17 Sunny 86 30 75 24 70 70 S 5 7 30.15 1021 10 16.0934 N/A
12:36 pm 12:36 Sunny 84 29 75 24 74 74 SSE 5 7 30.15 1021 10 16.0934 N/A
12:56 pm 12:56 Sunny 86 30 75 24 70 70 SW 3 6 30.12 1020 10 16.0934 N/A
1:17 pm 13:17 Sunny 86 30 77 25 75 75 S 7 11 30.12 1020 10 16.0934 N/A
1:36 pm 13:36 Partly Cloudy 86 30 77 25 75 75 S 9 15 30.12 1020 10 16.0934 N/A
1:57 pm 13:57 Partly Cloudy 86 30 79 26 79 79 SSE 6 9 30.12 1020 10 16.0934 N/A
2:16 pm 14:16 Partly Cloudy 86 30 77 25 75 75 SSW 8 13 30.12 1020 10 16.0934 N/A
2:36 pm 14:36 Partly Cloudy 88 31 77 25 70 70 SSW 7 11 30.12 1020 10 16.0934 N/A
2:57 pm 14:57 Partly Cloudy 88 31 75 24 66 66 SSW 8 13 30.12 1020 10 16.0934 N/A
3:16 pm 15:16 Sunny 88 31 75 24 66 66 SW 6 9 30.12 1020 10 16.0934 N/A
3:37 pm 15:37 Partly Cloudy 88 31 75 24 66 66 SW 3 6 30.12 1020 10 16.0934 N/A
3:56 pm 15:56 Sunny 88 31 75 24 66 66 S 12 19 30.09 1019 10 16.0934 N/A
4:16 pm 16:16 Partly Cloudy 86 30 73 23 66 66 S 9 15 30.09 1019 10 16.0934 N/A
4:37 pm 16:37 Partly Cloudy 88 31 73 23 62 62 SW 6 9 30.09 1019 10 16.0934 N/A
4:56 pm 16:56 Partly Cloudy 88 31 75 24 66 66 S 7 11 30.09 1019 10 16.0934 N/A
5:17 pm 17:17 Partly Cloudy 88 31 73 23 62 62 SW 8 13 30.09 1019 10 16.0934 N/A
5:36 pm 17:36 Sunny 88 31 75 24 66 66 SSW 6 9 30.09 1019 10 16.0934 N/A
5:56 pm 17:56 Sunny 86 30 75 24 70 70 S 6 9 30.09 1019 10 16.0934 N/A
6:17 pm 18:17 Sunny 84 29 77 25 79 79 S 6 9 30.09 1019 10 16.0934 N/A
6:36 pm 18:36 Sunny 84 29 75 24 74 74 S 7 11 30.09 1019 10 16.0934 N/A
6:57 pm 18:57 Sunny 84 29 77 25 79 79 S 6 9 30.09 1019 10 16.0934 N/A
7:16 pm 19:16 Sunny 82 28 75 24 79 79 S 5 7 30.09 1019 10 16.0934 N/A
7:36 pm 19:36 Sunny 82 28 77 25 84 84 S 5 7 30.09 1019 10 16.0934 N/A
7:57 pm 19:57 Sunny 81 27 75 24 84 84 Calm 30.09 1019 10 16.0934 N/A
8:16 pm 20:16 Sunny 81 27 75 24 84 84 S 3 6 30.09 1019 10 16.0934 N/A
8:37 pm 20:37 Sunny 81 27 75 24 84 84 S 3 6 30.09 1019 10 16.0934 N/A
8:56 pm 20:56 Clear 79 26 75 24 89 89 S 5 7 30.09 1019 10 16.0934 N/A
9:16 pm 21:16 Clear 77 25 75 24 94 94 Calm 30.09 1019 10 16.0934 N/A
9:37 pm 21:37 Clear 77 25 73 23 89 89 S 3 6 30.09 1019 10 16.0934 N/A
9:56 pm 21:56 Clear 75 24 73 23 94 94 Calm 30.09 1019 10 16.0934 N/A
10:17 pm 22:17 Clear 73 23 73 23 100 100 S 3 6 30.12 1020 10 16.0934 N/A
10:36 pm 22:36 Clear 73 23 73 23 100 100 S 3 6 30.12 1020 10 16.0934 N/A
10:56 pm 22:56 Clear 73 23 73 23 100 100 S 3 6 30.12 1020 10 16.0934 N/A
11:17 pm 23:17 Clear 73 23 73 23 100 100 Calm 30.12 1020 10 16.0934 N/A
11:36 pm 23:36 Clear 73 23 73 23 100 100 Calm 30.12 1020 10 16.0934 N/A
11:57 pm 23:57 Clear 73 23 73 23 100 100 Calm 30.12 1020 10 16.0934 N/A

Powered by AerisWeather